Regional Weather Roundup
Issued by NWS

Home | Current Version | Previous Version | Graphics & Text | Print | Product List | Glossary Off
Versions: 1 2 3 4 5 6 7 8 9 10 11 12 13 14 15 16 17 18 19 20 21 22 23 24 25 26 27 28 29 30 31 32 33 34 35 36 37 38 39 40 41 42 43 44 45 46 47 48 49 50

000
ASUS45 KSLC 210910
RWRUT

UTAH REGIONAL WEATHER ROUNDUP
NATIONAL WEATHER SERVICE SALT LAKE CITY UT
300 AM MDT FRI JUL 21 2017

UTZ001>011-023>025-211000-

NORTHERN UTAH

CITY           SKY/WX    TMP DP  RH WIND       PRES   REMARKS
BRIGHAM CITY   MOCLDY    77  40  26 W5        30.00F
HILL AFB       MOCLDY    76  53  44 SE14      30.03F THUNDER
LOGAN          MOCLDY    71  60  68 N5        30.04S
OGDEN          TSTM      77  54  44 S9        29.99F
SALT LAKE CITY MOCLDY    84  51  31 S9        29.99R
TOOELE VALLEY  MOCLDY    77  50  38 NW6       30.02R
WENDOVER       PTCLDY    78  40  25 NE8       30.01R
HEBER CITY     MOCLDY    64  52  63 CALM      30.13R
WEST JORDAN    MOCLDY    78  58  50 S13G18    30.04S

$$

UTZ011>015-024>027-211000-

CENTRAL/NORTHEAST UTAH

CITY           SKY/WX    TMP DP  RH WIND       PRES   REMARKS
PROVO AIRPORT  CLOUDY    73  54  51 E5        30.06R
MOAB/CANYONLAN MOCLDY    71  64  78 CALM      30.08S
DELTA          CLOUDY    75  50  41 S14       30.06R
PRICE          MOCLDY    69  52  54 NE5       30.19F
ROOSEVELT      CLOUDY    68  52  56 N6        30.16R
VERNAL         CLOUDY    69  54  58 N5        30.15F

$$

UTZ013>016-019>022-027-211000-

SOUTHERN UTAH

CITY           SKY/WX    TMP DP  RH WIND       PRES   REMARKS
BRYCE CANYON   PTCLDY    54  53  97 S6        30.34S
CEDAR CITY     PTCLDY    68  45  43 CALM      30.16S
MILFORD        MOCLDY    72  53  51 S14       30.11S
ST GEORGE      PTSUNNY   82  52  35 E7        29.95F
HANKSVILLE     MOCLDY    68  55  64 CALM      30.11F
BLANDING       CLOUDY    63  59  86 NW5       30.27F

$$

REGIONAL REPORTS     COLORADO/ARIZONA

CITY           SKY/WX    TMP DP  RH WIND       PRES   REMARKS
CRAIG, CO      CLOUDY    64  50  60 NW5       30.26R
GRAND JUNCTION CLOUDY    71  54  54 CALM      30.11S
RIFLE, CO      CLEAR     65  56  72 CALM      30.18F
MONTROSE, CO   CLEAR     66  51  58 SE14      30.22S
CORTEZ, CO     PTCLDY    60  58  92 NE5       30.23F
COLORADO CITY    N/A     66  59  77 NE3       30.15S
PAGE, AZ       MOCLDY    76  61  59 SE9       30.08F
GRAND CANYON   MOCLDY    61  58  90 CALM      30.28S
KINGMAN, AZ    CLEAR     74  60  61 SE9       30.03F
FLAGSTAFF, AZ  CLOUDY    58  55  90 CALM      30.31S

$$

REGIONAL REPORTS    NEVADA/IDAHO/WYOMING

CITY           SKY/WX    TMP DP  RH WIND       PRES   REMARKS
LAS VEGAS, NV  MOCLDY    89  43  20 S7        29.87S
ELY, NY        CLEAR     62  46  55 S16       30.19F
ELKO, NV       CLEAR     62  24  23 CALM      30.12S
POCATELLO, ID  CLOUDY    72  37  28 SW10      30.07S
BURLEY, ID     PTCLDY    58  45  62 SW5       30.04S
FORT BRIDGER,    N/A     61  50  65 S8        30.25F
EVANSTON, WY   CLOUDY    66  50  56 E3        30.24S
ROCK SPRINGS,  CLOUDY    63  51  65 S6        30.23F
KEMMERER, WY     N/A     57  50  77 N8        30.25F

$$



USA.gov is the U.S. government's official web portal to all federal, state and local government web resources and services.